Location: Unspecified
(0.0000°N, 0.0000°E)
Time: 06:35:09
(UTC+00:00)

Transit 4A - Pass Details

Date: 25 November 2019
Orbit: 870 x 975 km, 66.8° (Epoch: 11 December)

Event Time Altitude Azimuth Distance (km) Brightness Sun altitude
Rises 08:12:16 0° 304° (WNW) 3,444 10.4 33.7°
Reaches altitude 10° 08:16:02 10° 279° (W) 2,515 9.8 34.5°
Maximum altitude 08:18:53 14° 249° (WSW) 2,256 9.7 35.2°
Drops below altitude 10° 08:21:46 10° 219° (SW) 2,537 10.2 35.8°
Sets 08:25:39 0° 194° (SSW) 3,497 11.0 36.7°
